Vorticity
12 11 9 16 3 2 8 13 14 16 10 2 17 9 -1 8 4 3 3 2 2 2
10 7 16 18 7 8 6 16 6 4 -4 37 -14 18 2 6 3 2 2 2 2 1
11 11 17 10 6 5 21 4 10 -2 42 -27 23 6 6 3 3 2 2 2 2 2
1 11 10 7 7 16 7 9 -5 17 -13 24 13 14 7 3 2 3 3 2 0 0
26 20 11 4 12 13 26 -17 9 -25 24 16 15 9 3 2 2 4 1 -3 0 3
32 13 9 9 15 18 29 19 5 29 2 26 6 4 3 3 3 0 -5 7 6 7
7 12 8 9 4 29 -7 -6 15 -3 18 9 7 3 3 3 -1 -1 6 6 9 12
18 10 9 6 18 1 17 -25 21 18 13 3 7 3 3 -2 2 8 6 10 12 11
12 12 6 29 -23 24 46 7 23 16 6 7 -0 -6 -4 -2 9 6 9 15 10 10
9 10 17 -9 21 30 16 5 11 3 -2 3 -1 15 14 7 10 11 13 11 9 8
18 1 17 -7 12 32 24 -8 -5 12 3 -3 15 3 8 10 15 10 11 9 8 8
12 23 20 34 24 4 8 9 6 8 10 4 9 10 15 10 12 9 9 9 8 9
41 24 1 10 11 9 7 5 3 4 10 9 13 11 12 10 8 7 7 7 10 10
12 10 9 5 4 4 4 7 9 11 10 11 11 9 8 8 7 7 8 9 9 12
Height
3049 3055 3061 3064 3068 3071 3075 3078 3080 3081 3083 3083 3084 3084 3084 3085 3085 3085 3084 3082 3080 3077
3040 3047 3051 3055 3060 3063 3067 3070 3072 3074 3075 3076 3076 3078 3078 3079 3079 3078 3077 3075 3072 3069
3033 3039 3043 3047 3051 3056 3060 3063 3065 3066 3067 3068 3071 3071 3072 3073 3072 3071 3069 3068 3064 3060
3025 3032 3036 3040 3044 3048 3052 3056 3059 3056 3052 3062 3064 3064 3066 3066 3065 3063 3062 3059 3055 3051
3016 3023 3027 3032 3036 3041 3045 3049 3051 3052 3053 3055 3057 3058 3059 3059 3058 3056 3053 3049 3046 3042
3007 3014 3020 3026 3031 3035 3039 3043 3044 3045 3046 3050 3050 3052 3052 3051 3049 3047 3043 3041 3037 3032
3002 3008 3015 3021 3026 3028 3032 3034 3038 3039 3040 3043 3045 3046 3045 3043 3041 3038 3035 3031 3026 3021
2997 3003 3009 3015 3019 3023 3026 3021 3030 3031 3035 3037 3039 3038 3037 3035 3032 3029 3025 3021 3016 3011
2992 2997 3003 3008 3012 3016 3017 3016 3023 3024 3028 3031 3033 3032 3029 3027 3022 3019 3016 3011 3006 3000
2991 2996 3000 3004 3007 3009 3009 3011 3015 3016 3020 3023 3024 3023 3020 3018 3014 3010 3005 3001 2996 2991
2988 2993 2991 3000 3002 3005 3008 3009 3011 3013 3017 3018 3016 3014 3012 3008 3004 3000 2996 2991 2986 2980
2986 2987 2993 2993 3002 3001 3004 3008 3011 3012 3012 3011 3009 3007 3003 2999 2996 2992 2987 2981 2975 2968
2982 2988 2988 2994 2997 3001 3003 3005 3006 3006 3006 3003 3001 2999 2995 2992 2987 2982 2976 2970 2963 2957
2988 2992 2991 2994 2995 2997 3000 3002 3002 3002 3000 2997 2994 2990 2987 2982 2977 2972 2966 2960 2955 2948